| time (UTC) | temp F | wind direction | speed MPH | gust MPH | rain 1hr in | rain 24hr in | rain mn in | humidity % | barometer mb |
| 20260505021536 | 66 | 0 | 0.0 | 1.0 | 0.00 | 0.00 | 0.00 | 35 | 1005.5 |
| 20260505020033 | 68 | 0 | 0.0 | 1.0 | 0.00 | 0.00 | 0.00 | 33 | 1005.5 |
| 20260505014538 | 69 | 0 | 0.0 | 3.0 | 0.00 | 0.00 | 0.00 | 30 | 1005.3 |
| 20260505013033 | 69 | 0 | 0.0 | 4.0 | 0.00 | 0.00 | 0.00 | 29 | 1005.4 |
| 20260505011533 | 69 | 0 | 0.0 | 2.0 | 0.00 | 0.00 | 0.00 | 30 | 1005.6 |
| 20260505010036 | 69 | 0 | 0.0 | 4.0 | 0.00 | 0.00 | 0.00 | 32 | 1005.6 |
| 20260505004536 | 70 | 169 | 0.0 | 5.0 | 0.00 | 0.00 | 0.00 | 30 | 1005.7 |
| 20260505003032 | 72 | 181 | 1.0 | 5.0 | 0.00 | 0.00 | 0.00 | 28 | 1005.9 |
| 20260505001546 | 72 | 186 | 1.0 | 5.0 | 0.00 | 0.00 | 0.00 | 30 | 1006.0 |
| 20260505000041 | 72 | 188 | 2.0 | 6.0 | 0.00 | 0.00 | 0.00 | 29 | 1006.2 |
| 20260504234536 | 71 | 183 | 2.0 | 6.0 | 0.00 | 0.00 | 0.00 | 31 | 1006.2 |
| 20260504233037 | 70 | 163 | 2.0 | 8.0 | 0.00 | 0.00 | 0.00 | 31 | 1006.4 |
| 20260504231548 | 72 | 153 | 2.0 | 8.0 | 0.00 | 0.00 | 0.00 | 29 | 1006.5 |
| 20260504230033 | 76 | 252 | 0.0 | 8.0 | 0.00 | 0.00 | 0.00 | 25 | 1006.6 |
| 20260504224536 | 74 | 177 | 1.0 | 11.0 | 0.00 | 0.00 | 0.00 | 27 | 1006.5 |
| 20260504223035 | 74 | 214 | 2.0 | 9.0 | 0.00 | 0.00 | 0.00 | 29 | 1006.5 |
| 20260504221535 | 77 | 225 | 2.0 | 9.0 | 0.00 | 0.00 | 0.00 | 26 | 1006.3 |
| 20260504220036 | 78 | 238 | 2.0 | 8.0 | 0.00 | 0.00 | 0.00 | 20 | 1006.5 |
| 20260504214532 | 78 | 352 | 2.0 | 7.0 | 0.00 | 0.00 | 0.00 | 22 | 1006.5 |
| 20260504213032 | 79 | 325 | 1.0 | 4.0 | 0.00 | 0.00 | 0.00 | 21 | 1006.8 |
| 20260504211534 | 77 | 277 | 0.0 | 9.0 | 0.00 | 0.00 | 0.00 | 25 | 1006.9 |
| 20260504210050 | 77 | 202 | 1.0 | 4.0 | 0.00 | 0.00 | 0.00 | 25 | 1007.0 |
| 20260504204531 | 77 | 270 | 1.0 | 6.0 | 0.00 | 0.00 | 0.00 | 25 | 1007.3 |
| 20260504203034 | 77 | 82 | 0.0 | 4.0 | 0.00 | 0.00 | 0.00 | 25 | 1007.5 |
| 20260504201530 | 77 | 229 | 1.0 | 4.0 | 0.00 | 0.00 | 0.00 | 25 | 1007.4 |
| 20260504200033 | 78 | 294 | 1.0 | 5.0 | 0.00 | 0.00 | 0.00 | 24 | 1007.6 |
| 20260504194546 | 77 | 294 | 0.0 | 9.0 | 0.00 | 0.00 | 0.00 | 25 | 1007.6 |
| 20260504193032 | 76 | 237 | 0.0 | 3.0 | 0.00 | 0.00 | 0.00 | 32 | 1007.9 |
| 20260504191541 | 75 | 0 | 0.0 | 3.0 | 0.00 | 0.00 | 0.00 | 27 | 1008.0 |
| 20260504190033 | 76 | 0 | 0.0 | 3.0 | 0.00 | 0.00 | 0.00 | 28 | 1008.3 |
| 20260504184538 | 75 | 0 | 0.0 | 5.0 | 0.00 | 0.00 | 0.00 | 27 | 1008.4 |
| 20260504183030 | 74 | 292 | 0.0 | 3.0 | 0.00 | 0.00 | 0.00 | 30 | 1008.6 |
| 20260504181530 | 73 | 211 | 0.0 | 4.0 | 0.00 | 0.00 | 0.00 | 29 | 1009.0 |
| 20260504180040 | 73 | 322 | 1.0 | 3.0 | 0.00 | 0.00 | 0.00 | 30 | 1009.1 |
| 20260504174529 | 72 | 0 | 0.0 | 4.0 | 0.00 | 0.00 | 0.00 | 35 | 1009.3 |
| 20260504173036 | 71 | 157 | 1.0 | 5.0 | 0.00 | 0.00 | 0.00 | 31 | 1009.4 |
| 20260504171531 | 70 | 0 | 0.0 | 3.0 | 0.00 | 0.00 | 0.00 | 33 | 1009.4 |
| 20260504081532 | 55 | 47 | 0.0 | 2.0 | 0.00 | 0.00 | 0.00 | 35 | 1008.6 |
| 20260504044532 | 63 | 0 | 0.0 | 1.0 | 0.00 | 0.00 | 0.00 | 24 | 1009.2 |
| 20260504043031 | 63 | 0 | 0.0 | 4.0 | 0.00 | 0.00 | 0.00 | 23 | 1009.3 |
| 20260504041537 | 64 | 71 | 0.0 | 3.0 | 0.00 | 0.00 | 0.00 | 23 | 1009.4 |
| 20260504040040 | 64 | 71 | 1.0 | 3.0 | 0.00 | 0.00 | 0.00 | 23 | 1009.4 |
| 20260504034541 | 64 | 71 | 0.0 | 4.0 | 0.00 | 0.00 | 0.00 | 23 | 1009.4 |
| 20260504033033 | 65 | 70 | 0.0 | 3.0 | 0.00 | 0.00 | 0.00 | 22 | 1009.4 |
| 20260504031537 | 66 | 79 | 2.0 | 5.0 | 0.00 | 0.00 | 0.00 | 22 | 1009.4 |
| 20260504030039 | 67 | 0 | 0.0 | 2.0 | 0.00 | 0.00 | 0.00 | 23 | 1009.4 |
| 20260504024535 | 68 | 0 | 0.0 | 2.0 | 0.00 | 0.00 | 0.00 | 22 | 1009.4 |
| 20260504023030 | 69 | 0 | 0.0 | 4.0 | 0.00 | 0.00 | 0.00 | 20 | 1009.4 |